QPF
0.00 0.00 0.00 0.00 0.00 0.00 0.00 0.00 0.00 0.00 0.00 0.00 0.00 0.00 0.00 0.00 0.00 0.00 0.00 0.01 0.01 0.01 0.02 0.02 0.02 0.03 0.03 0.02 0.02 0.03 0.03 0.04 0.05 0.07 0.07 0.07 0.08 0.09 0.08 0.08 0.07 0.04 0.02 0.02
0.00 0.00 0.00 0.00 0.00 0.00 0.00 0.00 0.00 0.01 0.01 0.00 0.00 0.00 0.00 0.00 0.00 0.00 0.01 0.01 0.01 0.01 0.01 0.02 0.02 0.02 0.03 0.02 0.02 0.02 0.03 0.04 0.04 0.05 0.07 0.07 0.07 0.07 0.07 0.07 0.07 0.06 0.03 0.02
0.00 0.00 0.00 0.00 0.00 0.00 0.00 0.00 0.00 0.01 0.01 0.01 0.01 0.01 0.00 0.00 0.01 0.01 0.01 0.01 0.01 0.01 0.02 0.02 0.02 0.02 0.02 0.02 0.02 0.03 0.03 0.04 0.04 0.04 0.05 0.07 0.08 0.08 0.09 0.08 0.07 0.07 0.05 0.03
0.00 0.00 0.00 0.00 0.00 0.00 0.00 0.00 0.00 0.00 0.01 0.01 0.02 0.01 0.01 0.01 0.01 0.01 0.01 0.01 0.01 0.02 0.02 0.02 0.03 0.02 0.02 0.02 0.01 0.02 0.03 0.03 0.04 0.04 0.04 0.05 0.06 0.07 0.08 0.09 0.07 0.07 0.06 0.04
0.00 0.00 0.00 0.00 0.00 0.00 0.00 0.00 0.00 0.00 0.00 0.01 0.01 0.01 0.01 0.01 0.02 0.02 0.02 0.02 0.02 0.03 0.03 0.02 0.03 0.03 0.02 0.02 0.01 0.02 0.02 0.03 0.03 0.04 0.04 0.04 0.05 0.07 0.08 0.09 0.08 0.08 0.08 0.07
0.00 0.00 0.00 0.00 0.00 0.00 0.00 0.00 0.00 0.00 0.00 0.00 0.01 0.01 0.02 0.02 0.03 0.03 0.03 0.04 0.04 0.04 0.04 0.04 0.04 0.03 0.02 0.02 0.01 0.02 0.02 0.02 0.02 0.03 0.03 0.03 0.04 0.06 0.09 0.09 0.09 0.08 0.08 0.08
0.00 0.00 0.00 0.00 0.00 0.00 0.00 0.00 0.00 0.00 0.00 0.00 0.00 0.01 0.02 0.02 0.02 0.03 0.03 0.04 0.04 0.04 0.05 0.06 0.06 0.04 0.03 0.02 0.02 0.02 0.03 0.03 0.02 0.03 0.03 0.03 0.03 0.04 0.07 0.09 0.10 0.09 0.08 0.08
0.00 0.00 0.00 0.00 0.00 0.00 0.00 0.00 0.00 0.00 0.00 0.00 0.00 0.01 0.01 0.01 0.01 0.02 0.02 0.04 0.05 0.05 0.06 0.06 0.05 0.05 0.03 0.02 0.02 0.02 0.03 0.04 0.05 0.04 0.04 0.03 0.03 0.03 0.04 0.06 0.09 0.10 0.09 0.08
0.01 0.00 0.00 0.00 0.00 0.00 0.00 0.00 0.00 0.01 0.01 0.00 0.00 0.00 0.01 0.00 0.00 0.01 0.01 0.03 0.04 0.05 0.07 0.06 0.04 0.04 0.03 0.02 0.02 0.02 0.03 0.04 0.05 0.06 0.07 0.06 0.05 0.05 0.04 0.04 0.05 0.08 0.08 0.08
0.01 0.01 0.00 0.00 0.00 0.00 0.00 0.00 0.00 0.01 0.01 0.00 0.00 0.00 0.00 0.00 0.00 0.01 0.01 0.02 0.03 0.04 0.07 0.06 0.04 0.03 0.03 0.02 0.02 0.02 0.02 0.03 0.04 0.06 0.07 0.07 0.07 0.07 0.07 0.06 0.04 0.04 0.05 0.06
0.01 0.01 0.01 0.00 0.01 0.01 0.01 0.01 0.01 0.01 0.01 0.00 0.00 0.00 0.00 0.00 0.01 0.01 0.01 0.01 0.02 0.03 0.06 0.06 0.06 0.04 0.03 0.02 0.02 0.01 0.02 0.03 0.04 0.05 0.06 0.07 0.07 0.07 0.06 0.07 0.07 0.06 0.06 0.06
0.01 0.02 0.01 0.01 0.00 0.00 0.01 0.01 0.01 0.01 0.01 0.01 0.01 0.00 0.00 0.00 0.00 0.01 0.01 0.01 0.02 0.03 0.06 0.06 0.06 0.06 0.04 0.03 0.02 0.01 0.01 0.02 0.03 0.05 0.06 0.07 0.08 0.07 0.06 0.06 0.06 0.07 0.07 0.07
0.01 0.02 0.01 0.01 0.00 0.01 0.01 0.01 0.01 0.01 0.02 0.01 0.01 0.00 0.00 0.00 0.00 0.00 0.01 0.01 0.01 0.03 0.06 0.06 0.05 0.06 0.04 0.04 0.03 0.01 0.01 0.01 0.01 0.03 0.05 0.07 0.07 0.07 0.05 0.04 0.04 0.04 0.05 0.07
0.02 0.01 0.01 0.01 0.00 0.01 0.01 0.01 0.01 0.02 0.02 0.02 0.01 0.00 0.00 0.00 0.00 0.00 0.00 0.01 0.01 0.02 0.04 0.05 0.05 0.07 0.06 0.05 0.05 0.03 0.01 0.01 0.01 0.01 0.03 0.05 0.06 0.07 0.06 0.05 0.04 0.03 0.04 0.05
0.02 0.02 0.01 0.00 0.00 0.00 0.00 0.00 0.01 0.01 0.01 0.01 0.01 0.00 0.00 0.00 0.00 0.00 0.00 0.01 0.01 0.01 0.03 0.03 0.03 0.05 0.06 0.06 0.07 0.06 0.04 0.02 0.01 0.01 0.02 0.03 0.04 0.04 0.05 0.05 0.04 0.03 0.03 0.04
0.02 0.02 0.01 0.01 0.01 0.00 0.00 0.00 0.00 0.01 0.01 0.01 0.00 0.00 0.00 0.00 0.00 0.00 0.00 0.00 0.01 0.01 0.02 0.02 0.02 0.03 0.04 0.04 0.05 0.07 0.06 0.04 0.03 0.02 0.02 0.03 0.04 0.03 0.03 0.03 0.03 0.02 0.02 0.02
0.02 0.02 0.02 0.01 0.01 0.01 0.01 0.00 0.00 0.00 0.00 0.00 0.01 0.01 0.00 0.00 0.00 0.00 0.00 0.00 0.00 0.01 0.01 0.01 0.01 0.02 0.03 0.03 0.03 0.05 0.06 0.06 0.05 0.04 0.03 0.03 0.04 0.04 0.03 0.02 0.02 0.02 0.02 0.02
0.02 0.02 0.02 0.02 0.01 0.01 0.01 0.00 0.00 0.00 0.00 0.00 0.00 0.00 0.00 0.00 0.00 0.00 0.00 0.00 0.00 0.00 0.01 0.01 0.01 0.01 0.01 0.02 0.03 0.03 0.03 0.04 0.05 0.05 0.04 0.04 0.03 0.03 0.03 0.03 0.03 0.02 0.02 0.02
0.02 0.02 0.03 0.02 0.01 0.01 0.00 0.00 0.00 0.00 0.00 0.00 0.00 0.00 0.00 0.00 0.00 0.00 0.00 0.00 0.00 0.00 0.00 0.01 0.01 0.01 0.01 0.01 0.02 0.02 0.03 0.03 0.03 0.04 0.04 0.04 0.04 0.04 0.04 0.04 0.04 0.03 0.02 0.02
0.01 0.02 0.03 0.03 0.02 0.01 0.00 0.00 0.00 0.01 0.00 0.00 0.00 0.01 0.01 0.01 0.01 0.00 0.00 0.00 0.00 0.00 0.00 0.00 0.00 0.00 0.00 0.01 0.01 0.02 0.02 0.02 0.03 0.03 0.04 0.04 0.04 0.05 0.05 0.05 0.05 0.04 0.04 0.03
0.01 0.02 0.03 0.02 0.02 0.01 0.00 0.00 0.00 0.01 0.01 0.01 0.01 0.01 0.01 0.01 0.01 0.01 0.01 0.00 0.00 0.00 0.00 0.00 0.00 0.00 0.00 0.00 0.01 0.01 0.01 0.01 0.02 0.02 0.02 0.03 0.03 0.03 0.04 0.04 0.05 0.05 0.05 0.05
0.01 0.02 0.02 0.02 0.02 0.01 0.00 0.00 0.01 0.01 0.01 0.01 0.01 0.01 0.00 0.00 0.00 0.00 0.00 0.00 0.00 0.00 0.00 0.00 0.00 0.00 0.00 0.00 0.01 0.01 0.01 0.01 0.01 0.01 0.02 0.02 0.02 0.02 0.03 0.03 0.03 0.04 0.05 0.05
0.01 0.01 0.02 0.02 0.01 0.01 0.01 0.01 0.02 0.02 0.01 0.01 0.01 0.00 0.00 0.00 0.00 0.00 0.00 0.00 0.00 0.00 0.00 0.00 0.00 0.00 0.00 0.01 0.01 0.01 0.01 0.01 0.01 0.01 0.01 0.01 0.01 0.02 0.02 0.02 0.03 0.03 0.04 0.05
0.01 0.01 0.01 0.01 0.01 0.01 0.01 0.01 0.01 0.01 0.01 0.00 0.00 0.00 0.00 0.00 0.00 0.00 0.00 0.00 0.00 0.00 0.00 0.00 0.00 0.00 0.00 0.01 0.01 0.01 0.00 0.00 0.01 0.01 0.01 0.01 0.01 0.01 0.02 0.02 0.02 0.03 0.05 0.05
0.01 0.01 0.01 0.01 0.01 0.01 0.01 0.00 0.00 0.00 0.00 0.00 0.00 0.00 0.00 0.00 0.00 0.00 0.00 0.00 0.00 0.00 0.00 0.00 0.00 0.01 0.01 0.01 0.01 0.01 0.00 0.00 0.01 0.01 0.01 0.01 0.01 0.01 0.02 0.02 0.03 0.04 0.05 0.06
0.01 0.01 0.01 0.01 0.01 0.01 0.01 0.01 0.00 0.00 0.01 0.01 0.01 0.00 0.00 0.00 0.00 0.00 0.00 0.00 0.01 0.01 0.01 0.01 0.01 0.01 0.01 0.01 0.01 0.01 0.00 0.00 0.01 0.01 0.01 0.01 0.02 0.02 0.02 0.01 0.02 0.03 0.04 0.04
MSLP
1022.40 1022.70 1023.12 1023.62 1024.13 1024.59 1024.97 1025.21 1025.33 1025.33 1025.25 1025.14 1025.04 1024.99 1025.02 1025.16 1025.39 1025.72 1026.12 1026.57 1027.05 1027.56 1028.08 1028.58 1029.07 1029.51 1029.88 1030.16 1030.31 1030.32 1030.16 1029.85 1029.39 1028.83 1028.21 1027.56 1026.93 1026.35 1025.83 1025.35 1024.91 1024.47 1024.00 1023.50
1023.38 1023.78 1024.27 1024.78 1025.26 1025.63 1025.86 1025.93 1025.85 1025.66 1025.40 1025.16 1024.97 1024.88 1024.93 1025.11 1025.40 1025.78 1026.22 1026.68 1027.14 1027.58 1028.01 1028.41 1028.80 1029.16 1029.48 1029.75 1029.93 1029.99 1029.91 1029.68 1029.29 1028.78 1028.16 1027.48 1026.78 1026.10 1025.47 1024.87 1024.32 1023.80 1023.28 1022.75
1024.43 1024.96 1025.53 1026.07 1026.52 1026.79 1026.87 1026.74 1026.43 1026.01 1025.55 1025.13 1024.83 1024.70 1024.76 1025.00 1025.38 1025.86 1026.38 1026.88 1027.33 1027.72 1028.04 1028.31 1028.56 1028.80 1029.03 1029.25 1029.45 1029.57 1029.58 1029.45 1029.17 1028.72 1028.14 1027.44 1026.68 1025.89 1025.12 1024.39 1023.72 1023.09 1022.49 1021.92
1025.40 1026.06 1026.73 1027.33 1027.75 1027.94 1027.86 1027.53 1026.98 1026.31 1025.62 1025.02 1024.60 1024.41 1024.48 1024.80 1025.30 1025.90 1026.53 1027.11 1027.57 1027.91 1028.13 1028.26 1028.34 1028.42 1028.54 1028.69 1028.87 1029.03 1029.14 1029.13 1028.96 1028.62 1028.09 1027.39 1026.58 1025.70 1024.81 1023.94 1023.14 1022.40 1021.73 1021.12
1026.14 1026.95 1027.74 1028.39 1028.81 1028.93 1028.73 1028.20 1027.43 1026.52 1025.60 1024.81 1024.26 1024.01 1024.10 1024.50 1025.13 1025.88 1026.64 1027.31 1027.81 1028.12 1028.24 1028.22 1028.12 1028.03 1028.00 1028.05 1028.19 1028.39 1028.58 1028.68 1028.64 1028.40 1027.94 1027.28 1026.45 1025.50 1024.51 1023.54 1022.63 1021.81 1021.08 1020.42
1026.58 1027.52 1028.42 1029.14 1029.59 1029.68 1029.38 1028.71 1027.75 1026.64 1025.52 1024.56 1023.88 1023.58 1023.68 1024.15 1024.90 1025.79 1026.68 1027.44 1027.99 1028.28 1028.31 1028.14 1027.88 1027.61 1027.42 1027.36 1027.44 1027.65 1027.89 1028.10 1028.17 1028.04 1027.67 1027.05 1026.23 1025.26 1024.23 1023.20 1022.22 1021.34 1020.56 1019.86
1026.68 1027.74 1028.74 1029.55 1030.05 1030.15 1029.81 1029.05 1027.97 1026.70 1025.43 1024.33 1023.55 1023.19 1023.29 1023.81 1024.65 1025.64 1026.64 1027.48 1028.07 1028.33 1028.29 1028.00 1027.58 1027.15 1026.81 1026.63 1026.65 1026.84 1027.12 1027.39 1027.55 1027.52 1027.23 1026.68 1025.90 1024.95 1023.91 1022.88 1021.89 1020.99 1020.19 1019.44
1026.50 1027.65 1028.74 1029.64 1030.21 1030.36 1030.04 1029.26 1028.12 1026.78 1025.41 1024.21 1023.35 1022.93 1023.01 1023.54 1024.41 1025.47 1026.52 1027.41 1028.01 1028.25 1028.14 1027.76 1027.21 1026.65 1026.18 1025.91 1025.86 1026.01 1026.30 1026.61 1026.82 1026.85 1026.64 1026.15 1025.43 1024.54 1023.55 1022.55 1021.59 1020.72 1019.91 1019.12
1026.16 1027.34 1028.50 1029.47 1030.13 1030.35 1030.10 1029.37 1028.25 1026.89 1025.49 1024.24 1023.32 1022.84 1022.86 1023.36 1024.21 1025.26 1026.31 1027.19 1027.77 1027.99 1027.83 1027.38 1026.76 1026.11 1025.56 1025.21 1025.10 1025.22 1025.49 1025.80 1026.03 1026.10 1025.92 1025.49 1024.83 1024.01 1023.09 1022.17 1021.28 1020.45 1019.65 1018.83
1025.76 1026.94 1028.12 1029.14 1029.88 1030.19 1030.03 1029.39 1028.34 1027.04 1025.66 1024.40 1023.44 1022.90 1022.84 1023.26 1024.03 1025.00 1025.98 1026.81 1027.35 1027.53 1027.34 1026.86 1026.21 1025.53 1024.96 1024.57 1024.43 1024.51 1024.75 1025.03 1025.25 1025.31 1025.14 1024.74 1024.13 1023.38 1022.55 1021.72 1020.91 1020.14 1019.36 1018.51
1025.44 1026.56 1027.72 1028.75 1029.52 1029.91 1029.85 1029.31 1028.37 1027.15 1025.83 1024.60 1023.62 1023.03 1022.88 1023.18 1023.82 1024.65 1025.51 1026.24 1026.71 1026.85 1026.65 1026.18 1025.56 1024.91 1024.37 1024.00 1023.86 1023.92 1024.13 1024.37 1024.54 1024.55 1024.36 1023.96 1023.38 1022.67 1021.92 1021.17 1020.45 1019.75 1018.99 1018.10
1025.26 1026.28 1027.35 1028.34 1029.10 1029.52 1029.52 1029.08 1028.24 1027.13 1025.89 1024.71 1023.74 1023.10 1022.86 1023.03 1023.51 1024.18 1024.89 1025.49 1025.87 1025.97 1025.78 1025.37 1024.82 1024.26 1023.80 1023.50 1023.40 1023.47 1023.65 1023.84 1023.94 1023.90 1023.65 1023.22 1022.63 1021.95 1021.25 1020.57 1019.92 1019.26 1018.52 1017.61
1025.24 1026.12 1027.06 1027.93 1028.62 1029.00 1029.02 1028.63 1027.88 1026.86 1025.73 1024.61 1023.67 1023.01 1022.70 1022.75 1023.08 1023.58 1024.13 1024.60 1024.90 1024.96 1024.80 1024.45 1024.02 1023.59 1023.26 1023.07 1023.04 1023.14 1023.31 1023.46 1023.50 1023.37 1023.06 1022.57 1021.95 1021.27 1020.58 1019.94 1019.33 1018.71 1017.98 1017.06
1025.35 1026.06 1026.82 1027.52 1028.06 1028.34 1028.30 1027.92 1027.22 1026.29 1025.24 1024.21 1023.33 1022.69 1022.35 1022.31 1022.51 1022.87 1023.28 1023.63 1023.85 1023.90 1023.77 1023.52 1023.21 1022.93 1022.75 1022.69 1022.76 1022.91 1023.09 1023.21 1023.19 1022.99 1022.60 1022.05 1021.38 1020.67 1019.98 1019.34 1018.75 1018.14 1017.43 1016.50
1025.52 1026.04 1026.59 1027.07 1027.40 1027.52 1027.37 1026.93 1026.24 1025.37 1024.41 1023.49 1022.70 1022.12 1021.80 1021.73 1021.86 1022.12 1022.43 1022.69 1022.85 1022.88 1022.79 1022.63 1022.45 1022.32 1022.28 1022.35 1022.53 1022.75 1022.95 1023.05 1023.00 1022.74 1022.29 1021.67 1020.96 1020.20 1019.49 1018.83 1018.22 1017.61 1016.90 1015.98
1025.67 1026.01 1026.32 1026.55 1026.64 1026.54 1026.23 1025.70 1024.99 1024.16 1023.30 1022.49 1021.83 1021.36 1021.10 1021.07 1021.19 1021.41 1021.66 1021.87 1021.99 1022.02 1021.96 1021.87 1021.79 1021.78 1021.86 1022.05 1022.31 1022.60 1022.83 1022.94 1022.86 1022.58 1022.08 1021.43 1020.67 1019.88 1019.13 1018.44 1017.80 1017.17 1016.46 1015.56
1025.72 1025.87 1025.96 1025.94 1025.77 1025.44 1024.95 1024.31 1023.55 1022.76 1022.00 1021.33 1020.82 1020.49 1020.37 1020.42 1020.59 1020.83 1021.06 1021.25 1021.35 1021.37 1021.34 1021.29 1021.27 1021.34 1021.51 1021.77 1022.09 1022.43 1022.69 1022.81 1022.74 1022.44 1021.94 1021.28 1020.50 1019.69 1018.91 1018.18 1017.51 1016.85 1016.13 1015.26
1025.58 1025.58 1025.47 1025.21 1024.82 1024.27 1023.61 1022.86 1022.08 1021.32 1020.66 1020.14 1019.80 1019.66 1019.69 1019.87 1020.14 1020.43 1020.68 1020.87 1020.97 1020.98 1020.94 1020.90 1020.91 1021.00 1021.19 1021.49 1021.84 1022.19 1022.47 1022.61 1022.56 1022.29 1021.81 1021.17 1020.41 1019.60 1018.81 1018.06 1017.36 1016.68 1015.95 1015.10
1025.19 1025.08 1024.81 1024.38 1023.80 1023.09 1022.30 1021.48 1020.68 1019.98 1019.43 1019.06 1018.90 1018.94 1019.15 1019.47 1019.85 1020.21 1020.51 1020.71 1020.80 1020.80 1020.74 1020.68 1020.66 1020.73 1020.91 1021.18 1021.52 1021.87 1022.15 1022.30 1022.28 1022.06 1021.64 1021.05 1020.34 1019.58 1018.80 1018.05 1017.34 1016.63 1015.90 1015.07
1024.52 1024.34 1023.98 1023.43 1022.74 1021.94 1021.09 1020.24 1019.48 1018.86 1018.42 1018.21 1018.21 1018.42 1018.78 1019.23 1019.71 1020.14 1020.48 1020.70 1020.78 1020.75 1020.66 1020.56 1020.49 1020.51 1020.63 1020.85 1021.14 1021.46 1021.72 1021.89 1021.90 1021.74 1021.39 1020.89 1020.26 1019.56 1018.84 1018.11 1017.41 1016.70 1015.97 1015.16
1023.55 1023.35 1022.95 1022.38 1021.67 1020.86 1020.02 1019.22 1018.54 1018.02 1017.71 1017.62 1017.77 1018.11 1018.58 1019.13 1019.68 1020.16 1020.52 1020.73 1020.80 1020.75 1020.62 1020.47 1020.34 1020.29 1020.34 1020.49 1020.72 1020.98 1021.22 1021.38 1021.43 1021.32 1021.06 1020.66 1020.14 1019.53 1018.88 1018.21 1017.54 1016.85 1016.13 1015.35
1022.31 1022.12 1021.75 1021.23 1020.58 1019.86 1019.12 1018.44 1017.87 1017.48 1017.29 1017.33 1017.57 1017.99 1018.53 1019.12 1019.69 1020.17 1020.53 1020.74 1020.79 1020.72 1020.55 1020.36 1020.18 1020.07 1020.05 1020.12 1020.27 1020.47 1020.67 1020.82 1020.89 1020.84 1020.66 1020.36 1019.95 1019.46 1018.91 1018.32 1017.70 1017.06 1016.37 1015.63
1020.83 1020.70 1020.42 1020.02 1019.52 1018.96 1018.40 1017.88 1017.48 1017.23 1017.16 1017.29 1017.59 1018.04 1018.58 1019.16 1019.70 1020.15 1020.48 1020.66 1020.69 1020.60 1020.43 1020.21 1020.00 1019.85 1019.77 1019.78 1019.86 1020.00 1020.15 1020.28 1020.35 1020.34 1020.23 1020.02 1019.72 1019.34 1018.90 1018.41 1017.87 1017.29 1016.66 1015.96
1019.23 1019.18 1019.04 1018.81 1018.52 1018.18 1017.84 1017.54 1017.32 1017.22 1017.27 1017.46 1017.78 1018.22 1018.71 1019.22 1019.69 1020.08 1020.35 1020.50 1020.51 1020.41 1020.24 1020.03 1019.83 1019.66 1019.55 1019.51 1019.54 1019.62 1019.72 1019.81 1019.87 1019.88 1019.81 1019.68 1019.47 1019.19 1018.85 1018.46 1018.01 1017.51 1016.95 1016.32
1017.64 1017.68 1017.69 1017.67 1017.61 1017.52 1017.43 1017.37 1017.35 1017.41 1017.55 1017.78 1018.10 1018.48 1018.90 1019.31 1019.68 1019.98 1020.18 1020.28 1020.28 1020.19 1020.04 1019.86 1019.68 1019.53 1019.42 1019.36 1019.35 1019.37 1019.42 1019.47 1019.50 1019.49 1019.45 1019.35 1019.21 1019.01 1018.77 1018.47 1018.12 1017.70 1017.22 1016.67
1016.21 1016.35 1016.51 1016.68 1016.85 1017.02 1017.18 1017.34 1017.51 1017.71 1017.94 1018.20 1018.49 1018.80 1019.12 1019.42 1019.67 1019.87 1020.00 1020.06 1020.05 1019.99 1019.87 1019.74 1019.61 1019.49 1019.40 1019.33 1019.30 1019.28 1019.27 1019.27 1019.25 1019.22 1019.16 1019.08 1018.97 1018.83 1018.65 1018.44 1018.17 1017.84 1017.44 1016.98
Thickness
5566 5569 5563 5556 5551 5551 5549 5546 5546 5541 5527 5524 5532 5536 5535 5526 5520 5519 5518 5516 5514 5513 5511 5509 5508 5508 5510 5512 5514 5516 5518 5521 5523 5527 5531 5536 5540 5541 5543 5545 5546 5547 5548 5550
5563 5553 5542 5536 5535 5535 5535 5535 5537 5529 5514 5515 5520 5527 5529 5519 5513 5510 5509 5508 5506 5504 5502 5499 5499 5499 5500 5501 5503 5505 5507 5509 5511 5513 5516 5522 5525 5528 5531 5532 5534 5536 5537 5538
5554 5538 5526 5526 5527 5529 5527 5527 5526 5520 5509 5504 5504 5533 5528 5516 5506 5502 5499 5497 5497 5495 5493 5491 5490 5490 5490 5491 5492 5493 5495 5497 5499 5500 5504 5508 5511 5515 5519 5521 5523 5525 5525 5526
5531 5520 5517 5520 5520 5518 5524 5511 5506 5503 5506 5516 5500 5528 5530 5512 5504 5500 5496 5492 5489 5486 5484 5482 5481 5481 5481 5481 5481 5482 5483 5484 5486 5488 5492 5495 5500 5505 5507 5509 5511 5513 5514 5514
5520 5509 5510 5512 5508 5503 5506 5494 5493 5492 5494 5497 5496 5499 5528 5503 5501 5497 5490 5485 5480 5477 5475 5473 5472 5472 5471 5471 5471 5471 5472 5473 5474 5476 5479 5482 5487 5490 5493 5496 5499 5501 5502 5503
5502 5494 5494 5495 5490 5489 5485 5487 5484 5482 5488 5499 5495 5493 5518 5502 5491 5488 5480 5473 5469 5468 5465 5464 5462 5462 5462 5461 5461 5461 5462 5462 5463 5465 5467 5470 5473 5477 5481 5484 5487 5489 5491 5492
5501 5491 5483 5480 5486 5482 5481 5491 5501 5502 5502 5510 5475 5476 5496 5484 5474 5469 5466 5462 5459 5456 5455 5454 5454 5454 5453 5452 5452 5452 5453 5453 5453 5454 5456 5458 5461 5464 5468 5471 5474 5476 5479 5481
5504 5503 5478 5470 5473 5475 5473 5479 5490 5495 5504 5506 5467 5478 5488 5466 5457 5453 5450 5448 5448 5447 5445 5444 5443 5442 5442 5442 5442 5442 5443 5443 5444 5444 5446 5447 5448 5451 5455 5458 5460 5463 5466 5469
5494 5491 5462 5455 5453 5460 5463 5466 5455 5462 5452 5463 5485 5475 5469 5459 5452 5446 5443 5440 5439 5437 5435 5434 5433 5431 5431 5431 5431 5431 5431 5432 5433 5434 5435 5436 5438 5439 5442 5445 5448 5450 5453 5456
5470 5469 5456 5444 5443 5439 5445 5446 5446 5452 5462 5478 5485 5475 5476 5454 5448 5440 5434 5431 5429 5426 5424 5423 5422 5422 5421 5420 5420 5420 5421 5422 5422 5423 5425 5426 5427 5428 5431 5433 5436 5438 5441 5443
5452 5455 5450 5440 5437 5445 5430 5428 5432 5441 5440 5458 5469 5477 5453 5442 5435 5427 5423 5419 5417 5414 5412 5411 5411 5411 5411 5410 5410 5410 5410 5410 5412 5413 5414 5414 5416 5418 5420 5422 5425 5427 5430 5433
5437 5444 5448 5441 5420 5414 5421 5424 5424 5436 5432 5422 5442 5457 5432 5425 5418 5413 5410 5406 5403 5401 5400 5399 5399 5399 5400 5399 5399 5399 5400 5400 5401 5401 5402 5404 5406 5408 5410 5412 5415 5417 5419 5421
5423 5430 5446 5450 5425 5403 5403 5402 5400 5403 5411 5415 5427 5447 5417 5409 5406 5402 5399 5396 5393 5391 5390 5389 5388 5388 5388 5388 5388 5388 5388 5389 5389 5389 5391 5394 5396 5398 5399 5401 5404 5406 5408 5410
5419 5421 5434 5452 5447 5421 5402 5392 5386 5391 5405 5413 5417 5430 5418 5408 5402 5398 5392 5387 5385 5382 5379 5378 5378 5377 5376 5376 5375 5375 5376 5376 5377 5378 5380 5383 5385 5387 5388 5390 5393 5394 5396 5398
5407 5414 5408 5410 5407 5399 5400 5396 5384 5381 5397 5403 5415 5406 5408 5401 5393 5388 5382 5377 5375 5373 5370 5368 5366 5366 5365 5364 5363 5363 5364 5365 5365 5367 5369 5373 5375 5376 5377 5379 5382 5383 5385 5387
5392 5396 5390 5394 5391 5385 5386 5392 5386 5380 5381 5385 5386 5390 5393 5385 5379 5375 5372 5367 5365 5364 5361 5358 5355 5354 5353 5352 5351 5351 5352 5353 5354 5356 5359 5362 5363 5365 5367 5368 5370 5372 5374 5376
5384 5380 5385 5402 5383 5376 5398 5400 5386 5378 5375 5375 5380 5388 5381 5373 5369 5366 5362 5358 5355 5353 5351 5347 5344 5342 5340 5339 5339 5340 5340 5341 5342 5345 5347 5350 5352 5354 5356 5357 5359 5361 5363 5365
5373 5372 5374 5381 5377 5390 5412 5382 5381 5375 5372 5366 5368 5370 5366 5362 5359 5354 5350 5347 5344 5341 5339 5336 5333 5331 5330 5328 5327 5327 5328 5330 5331 5334 5337 5339 5341 5343 5345 5346 5348 5350 5352 5355
5362 5365 5367 5368 5377 5394 5394 5373 5364 5362 5370 5365 5357 5357 5354 5347 5347 5352 5341 5335 5331 5328 5325 5323 5321 5319 5318 5317 5316 5317 5318 5319 5321 5324 5326 5328 5330 5332 5334 5336 5337 5339 5341 5344
5342 5348 5355 5352 5364 5381 5393 5361 5351 5353 5365 5362 5349 5347 5342 5335 5347 5353 5333 5324 5320 5317 5313 5311 5309 5308 5307 5306 5305 5306 5308 5309 5311 5313 5314 5316 5318 5320 5322 5324 5326 5327 5330 5332
5335 5335 5339 5345 5352 5370 5365 5342 5341 5356 5368 5351 5341 5337 5330 5329 5331 5325 5317 5312 5309 5306 5303 5300 5298 5297 5297 5295 5294 5295 5297 5298 5299 5300 5302 5304 5306 5308 5310 5313 5315 5316 5318 5321
5345 5339 5332 5335 5339 5360 5345 5335 5342 5352 5343 5335 5331 5327 5322 5318 5312 5308 5305 5301 5298 5295 5293 5290 5289 5288 5286 5284 5284 5285 5286 5287 5288 5290 5292 5294 5296 5298 5300 5302 5304 5305 5307 5309
5339 5344 5344 5340 5356 5349 5333 5335 5332 5327 5326 5324 5321 5315 5310 5306 5302 5299 5295 5291 5288 5285 5283 5280 5279 5278 5277 5275 5273 5274 5276 5276 5277 5279 5282 5284 5285 5287 5288 5290 5292 5294 5295 5298
5327 5318 5324 5324 5337 5333 5325 5322 5319 5315 5314 5312 5308 5304 5300 5296 5293 5289 5286 5282 5280 5277 5274 5271 5269 5268 5267 5265 5264 5264 5264 5265 5266 5269 5272 5273 5275 5277 5278 5279 5280 5282 5284 5287
5329 5313 5315 5318 5326 5322 5323 5318 5315 5310 5305 5301 5298 5294 5290 5287 5284 5280 5277 5274 5271 5268 5265 5262 5260 5259 5258 5256 5256 5255 5255 5255 5257 5259 5261 5263 5265 5266 5267 5268 5269 5271 5274 5275
5315 5311 5316 5331 5328 5321 5323 5315 5307 5302 5298 5293 5289 5285 5282 5279 5275 5272 5268 5265 5263 5260 5258 5255 5253 5251 5249 5248 5247 5247 5247 5246 5247 5250 5252 5254 5255 5256 5257 5258 5260 5262 5263 5266